Change the Weather History Date:

Monday, January 21, 2013

  Actual Average (KFNT) Record (KFNT)
Temperature  
Mean Temperature 10 °F 22 °F  
Max Temperature 16 °F 29 °F 55 °F (1934)
Min Temperature 3 °F 15 °F -16 °F (1984)
Degree Days  
Heating Degree Days 56 43  
Month to date heating degree days 892  
Since 1 July heating degree days 3537  
Cooling Degree Days 0 0  
Month to date cooling degree days 0  
Year to date cooling degree days 0  
Moisture  
Dew Point 2 °F    
Average Humidity 65    
Maximum Humidity 89    
Minimum Humidity 42    
Precipitation  
Precipitation 0.00 in 0.05 in 0.60 in (1993)
Month to date precipitation 1.16  
Year to date precipitation 1.16  
Snow  
Snow 0.00 in 0.40 in 5.10 in ()
Month to date snowfall 8.9  
Since 1 July snowfall 23.6  
Snow Depth -    
Sea Level Pressure  
Sea Level Pressure 29.99 in    
Wind  
Wind Speed 8 mph (West)    
Max Wind Speed 17 mph    
Max Gust Speed 26 mph    
Visibility 9 miles    
Events Snow    
T = Trace of Precipitation, MM = Missing Value Source: NWS Daily Summary

Daily Weather History Graph

Daily Weather History Graph

Search for Another Location

Airport or City:

Trip Planner

Search our weather history database for the weather conditions in past years. The results will help you decide how hot, cold, wet, or windy it might be!

Date:

Astronomy

Jan. 21, 2013 Rise Set
Actual Time 7:57 AM EST 5:31 PM EST
Civil Twilight 7:26 AM EST 6:02 PM EST
Nautical Twilight 6:52 AM EST 6:37 PM EST
Astronomical Twilight 6:18 AM EST 7:10 PM EST
Moon 1:10 PM EST (1/21) 3:25 AM EST (1/21)
Length of Visible Light 10h 35m
Length of Day
9h 33m
Waxing Gibbous, 75% of the Moon is Illuminated
Jan 21
Waxing Gibbous
Jan 26
Full
Feb 3
Last Quarter
Feb 10
New
Feb 17
First Quarter

Hourly Weather History & Observations

Time (EST) Temp. Windchill Dew Point Humidity Pressure Visibility Wind Dir Wind Speed Gust Speed Precip Events Conditions
12:13 AM 14.0 °F 2.0 °F 3.9 °F 64% 30.11 in 10.0 mi West 9.2 mph - N/A   Overcast
12:32 AM 14.0 °F 2.0 °F 3.4 °F 63% 30.10 in 10.0 mi WSW 9.2 mph - N/A   Overcast
12:53 AM 13.8 °F 3.7 °F 3.9 °F 65% 30.10 in 10.0 mi West 6.9 mph - N/A   Overcast
1:13 AM 12.7 °F 5.0 °F 3.9 °F 68% 30.09 in 10.0 mi West 4.6 mph - N/A   Scattered Clouds
1:32 AM 12.4 °F 6.3 °F 3.9 °F 69% 30.07 in 10.0 mi West 3.5 mph - N/A   Mostly Cloudy
1:53 AM 12.2 °F - 3.4 °F 68% 30.06 in 10.0 mi Calm Calm - N/A   Overcast
2:13 AM 12.6 °F - 3.7 °F 68% 30.06 in 10.0 mi Calm Calm - N/A   Overcast
2:32 AM 12.7 °F 6.7 °F 4.3 °F 69% 30.06 in 10.0 mi WSW 3.5 mph - N/A   Overcast
2:53 AM 13.1 °F 7.1 °F 3.6 °F 66% 30.06 in 10.0 mi WSW 3.5 mph - N/A   Overcast
3:13 AM 13.1 °F - 4.3 °F 68% 30.05 in 10.0 mi Calm Calm - N/A   Overcast
3:32 AM 13.1 °F 2.8 °F 4.3 °F 68% 30.05 in 10.0 mi SW 6.9 mph - N/A   Overcast
3:53 AM 13.5 °F 4.4 °F 3.7 °F 65% 30.04 in 10.0 mi SSW 5.8 mph - N/A   Overcast
4:13 AM 13.6 °F 3.5 °F 3.6 °F 64% 30.03 in 10.0 mi SW 6.9 mph - N/A   Overcast
4:32 AM 13.5 °F 3.3 °F 3.9 °F 66% 30.01 in 10.0 mi South 6.9 mph - N/A   Overcast
4:53 AM 13.3 °F 4.2 °F 4.6 °F 68% 30.00 in 10.0 mi South 5.8 mph - N/A   Overcast
5:13 AM 13.5 °F 5.8 °F 5.0 °F 69% 30.00 in 10.0 mi South 4.6 mph - N/A   Overcast
5:32 AM 13.6 °F 6.0 °F 5.4 °F 70% 29.99 in 10.0 mi SSW 4.6 mph - N/A   Overcast
5:53 AM 13.8 °F 8.0 °F 6.4 °F 72% 29.99 in 10.0 mi SSW 3.5 mph - N/A   Overcast
6:13 AM 14.0 °F 6.5 °F 7.7 °F 76% 29.98 in 7.0 mi SSW 4.6 mph - N/A Snow Light Snow
6:32 AM 14.0 °F 5.1 °F 8.6 °F 79% 29.98 in 5.0 mi SSW 5.8 mph - N/A Snow Light Snow
6:53 AM 13.8 °F 6.2 °F 9.5 °F 83% 29.98 in 4.0 mi SSW 4.6 mph - N/A Snow Light Snow
7:13 AM 14.0 °F 6.5 °F 10.0 °F 84% 29.97 in 4.0 mi SSW 4.6 mph - N/A Snow Light Snow
7:32 AM 14.0 °F 5.1 °F 10.4 °F 86% 29.96 in 4.0 mi South 5.8 mph - N/A Snow Light Snow
7:53 AM 14.0 °F 5.1 °F 10.6 °F 86% 29.97 in 4.0 mi SSW 5.8 mph - N/A Snow Light Snow
8:13 AM 14.0 °F 3.9 °F 10.6 °F 86% 29.96 in 2.5 mi SW 6.9 mph - N/A Snow Light Snow
8:32 AM 13.6 °F 7.7 °F 10.9 °F 89% 29.96 in 1.8 mi SSW 3.5 mph - N/A Snow Light Snow
8:53 AM 13.8 °F 3.7 °F 9.5 °F 83% 29.96 in 2.0 mi WNW 6.9 mph - N/A Snow Light Snow
9:13 AM 13.6 °F 3.5 °F 9.3 °F 83% 29.96 in 5.0 mi NW 6.9 mph - N/A Snow Light Snow
9:32 AM 13.8 °F 2.7 °F 7.7 °F 77% 29.96 in 7.0 mi West 8.1 mph - N/A   Overcast
9:53 AM 14.4 °F 3.3 °F 6.8 °F 72% 29.96 in 10.0 mi WNW 8.1 mph - N/A   Overcast
10:13 AM 14.4 °F 4.3 °F 6.1 °F 70% 29.96 in 10.0 mi West 6.9 mph - N/A   Overcast
10:33 AM 14.5 °F 1.9 °F 5.0 °F 66% 29.96 in 10.0 mi West 10.4 mph - N/A   Scattered Clouds
10:53 AM 16.2 °F 3.9 °F 5.7 °F 64% 29.96 in 10.0 mi WNW 10.4 mph 16.1 mph N/A   Mostly Cloudy
11:13 AM 16.2 °F 3.2 °F 6.3 °F 65% 29.95 in 10.0 mi WNW 11.5 mph 17.3 mph N/A   Overcast
11:33 AM 14.7 °F 0.7 °F 5.9 °F 68% 29.95 in 4.0 mi WNW 12.7 mph 19.6 mph N/A Snow Light Snow
11:53 AM 14.5 °F 1.1 °F 3.0 °F 60% 29.93 in 10.0 mi West 11.5 mph 18.4 mph N/A   Mostly Cloudy
12:13 PM 15.4 °F 2.3 °F 1.6 °F 54% 29.92 in 10.0 mi West 11.5 mph 18.4 mph N/A   Mostly Cloudy
12:33 PM 15.6 °F 1.8 °F 2.1 °F 55% 29.91 in 10.0 mi West 12.7 mph 19.6 mph N/A   Mostly Cloudy
12:53 PM 14.0 °F -0.2 °F 5.2 °F 68% 29.92 in 7.0 mi West 12.7 mph 18.4 mph N/A   Overcast
1:12 PM 14.4 °F 1.6 °F 2.8 °F 60% 29.91 in 10.0 mi West 10.4 mph 20.7 mph N/A   Overcast
1:33 PM 13.1 °F -3.1 °F 2.3 °F 62% 29.91 in 10.0 mi West 16.1 mph 19.6 mph N/A   Mostly Cloudy
1:53 PM 15.3 °F -0.4 °F -0.9 °F 49% 29.91 in 10.0 mi WNW 16.1 mph 21.9 mph N/A   Scattered Clouds
2:12 PM 13.3 °F -2.9 °F 3.7 °F 66% 29.92 in 5.0 mi WNW 16.1 mph 26.5 mph N/A Snow Light Snow
2:33 PM 14.5 °F 0.5 °F 1.2 °F 56% 29.92 in 10.0 mi West 12.7 mph 18.4 mph N/A   Scattered Clouds
2:53 PM 13.8 °F -0.5 °F -0.9 °F 52% 29.92 in 10.0 mi West 12.7 mph 24.2 mph N/A   Mostly Cloudy
3:12 PM 13.6 °F -3.0 °F -5.4 °F 43% 29.93 in 10.0 mi West 17.3 mph 26.5 mph N/A   Scattered Clouds
3:33 PM 12.0 °F -4.0 °F -4.9 °F 47% 29.94 in 10.0 mi West 15.0 mph 25.3 mph N/A   Mostly Cloudy
3:53 PM 13.5 °F -1.5 °F -5.8 °F 42% 29.94 in 10.0 mi West 13.8 mph 25.3 mph N/A   Scattered Clouds
4:12 PM 12.9 °F -0.9 °F -3.8 °F 47% 29.95 in 10.0 mi West 11.5 mph 25.3 mph N/A   Mostly Cloudy
4:33 PM 12.0 °F -4.5 °F -2.7 °F 52% 29.95 in 10.0 mi West 16.1 mph 26.5 mph N/A   Mostly Cloudy
4:53 PM 11.1 °F -1.6 °F 0.3 °F 62% 29.96 in 10.0 mi West 9.2 mph 18.4 mph N/A   Overcast
5:12 PM 10.4 °F -4.8 °F -3.8 °F 53% 29.96 in 10.0 mi West 12.7 mph 21.9 mph N/A   Mostly Cloudy
5:33 PM 9.1 °F -7.0 °F 1.8 °F 72% 29.97 in 4.0 mi West 13.8 mph 19.6 mph N/A   Haze
5:53 PM 8.6 °F -4.7 °F -1.1 °F 65% 29.98 in 10.0 mi West 9.2 mph 17.3 mph N/A   Scattered Clouds
6:12 PM 8.8 °F -6.1 °F -3.3 °F 58% 29.98 in 10.0 mi West 11.5 mph 19.6 mph N/A   Mostly Cloudy
6:33 PM 8.2 °F -6.0 °F -4.0 °F 58% 29.99 in 10.0 mi West 10.4 mph 18.4 mph N/A   Mostly Cloudy
6:52 PM 7.7 °F -4.8 °F -1.5 °F 66% 29.99 in 10.0 mi West 8.1 mph 18.4 mph N/A   Scattered Clouds
7:13 PM 7.5 °F -3.9 °F -1.5 °F 67% 30.00 in 10.0 mi WNW 6.9 mph - N/A   Mostly Cloudy
7:33 PM 6.8 °F -6.9 °F -1.5 °F 69% 30.00 in 10.0 mi West 9.2 mph 18.4 mph N/A   Overcast
7:52 PM 6.6 °F -7.1 °F -1.1 °F 71% 30.00 in 10.0 mi West 9.2 mph - N/A   Mostly Cloudy
8:13 PM 6.3 °F -9.2 °F -1.5 °F 71% 30.01 in 7.0 mi West 11.5 mph 19.6 mph N/A   Overcast
8:33 PM 5.9 °F -9.7 °F -2.7 °F 68% 30.01 in 10.0 mi West 11.5 mph 19.6 mph N/A   Scattered Clouds
8:52 PM 5.5 °F -11.6 °F -3.8 °F 65% 30.01 in 10.0 mi WNW 13.8 mph 20.7 mph N/A   Clear
9:13 PM 5.4 °F -11.1 °F -6.7 °F 58% 30.02 in 10.0 mi West 12.7 mph 21.9 mph N/A   Scattered Clouds
9:33 PM 5.0 °F - -9.8 °F 51% 30.02 in 10.0 mi North - - N/A   Clear
9:52 PM 4.5 °F -8.7 °F -10.1 °F 51% 30.03 in 10.0 mi West 8.1 mph 19.6 mph N/A   Clear
10:13 PM 4.1 °F - -10.1 °F 52% 30.03 in 10.0 mi North - - N/A   Clear
10:33 PM 3.9 °F -11.3 °F -9.8 °F 53% 30.03 in 10.0 mi West 10.4 mph - N/A   Clear
10:52 PM 3.7 °F -11.6 °F -9.4 °F 55% 30.03 in 10.0 mi West 10.4 mph - N/A   Clear
11:13 PM 3.2 °F -11.3 °F -8.7 °F 58% 30.03 in 10.0 mi West 9.2 mph - N/A   Clear
11:33 PM 3.2 °F -11.3 °F -8.0 °F 60% 30.04 in 10.0 mi West 9.2 mph - N/A   Clear
11:52 PM 3.0 °F -10.5 °F -7.6 °F 61% 30.05 in 10.0 mi West 8.1 mph - N/A   Clear